Flag for Norway Weather past 2 weeks in Rygge, Norway

Now
56 °F

Clear.


Feels Like: 55 °F
Forecast: 53 / 61 °F
Wind: 6 mph from Southwest

Location: Rygge

Current Time: Jul 7, 2015 at 6:52:14 AM

Latest Report: Jul 7, 2015 at 4:00 AM


Visibility: 31 mi

Pressure: 29.64 "Hg

Humidity: 65%

Dew point: 44 °F

Location of RyggeLocation

Historic Weather in Rygge — Graph

°F

Rygge temperature yesterday

Maximum temperature yesterday: 69 °F (at 4:00 PM)
Minimum temperature yesterday: 62 °F (at 6:00 PM)
Average temperature yesterday: 64 °F

Past Weeks' High & Low Weather Summary

 TemperatureHumidityPressure
High77 °F (Jul 5, 4:00 PM)99% (Jun 30, 2:00 AM)30.37 "Hg (Jun 30, 2:00 AM)
Low48 °F (Jun 27, 3:00 AM)37% (Jun 30, 4:00 PM)29.57 "Hg (Jul 6, 3:00 PM)
Average61 °F75%29.97 "Hg
* Reported Jun 22 4:00 AM — Jul 7 4:00 AM, Rygge, Weather by CustomWeather, © 2015

Note: Actual official high and low records may vary slightly from our data, if they occured in-between our weather recording intervals... More about our weather records

Advertising

Rygge weather history for previous 24 hours

 ConditionsComfort  
Time TempWeatherWind HumidityBarometerVisibility
4:00 AM
Tue, Jul 7
56 °FClear.6 mph65%29.64 "Hg31 mi
3:00 AM56 °FPassing clouds.6 mph66%29.64 "Hg31 mi
2:00 AM58 °FOvercast.6 mph62%29.64 "Hg31 mi
1:00 AM59 °FPassing clouds.9 mph59%29.63 "Hg31 mi
12:00 AM61 °FPassing clouds.8 mph55%29.64 "Hg31 mi
10:00 PM
Mon, Jul 6
64 °FOvercast.7 mph54%29.62 "Hg31 mi
9:00 PM63 °FOvercast.6 mph77%29.63 "Hg14 mi
8:00 PM63 °FOvercast.6 mph60%29.63 "Hg28 mi
7:00 PM63 °FOvercast.6 mph57%29.65 "Hg31 mi
6:00 PM62 °FLight rain. Overcast.7 mph62%29.65 "Hg16 mi
5:00 PM66 °FPartly sunny.12 mph49%29.62 "Hg28 mi
4:00 PM69 °FPartly sunny.9 mph51%29.60 "Hg22 mi
3:00 PM68 °FOvercast.10 mph62%29.57 "Hg22 mi
2:00 PM63 °FOvercast.9 mph83%29.60 "Hg16 mi
1:00 PM64 °FOvercast.10 mph78%29.60 "Hg19 mi
12:00 PM64 °FOvercast.9 mph82%29.61 "Hg17 mi
11:00 AM62 °FOvercast.9 mph88%29.62 "Hg19 mi
10:00 AM65 °FLow clouds.6 mph94%29.60 "Hg5 mi
9:00 AM64 °FRain showers. Low clouds.6 mph95%29.61 "Hg3 mi
8:00 AM66 °FLow clouds.7 mph93%29.62 "Hg10 mi
7:00 AM65 °FOvercast.7 mph93%29.64 "Hg11 mi
6:00 AM64 °FRain showers. Partly sunny.6 mph96%29.67 "Hg9 mi
Weather by CustomWeather, © 2015

See weather overviewHow to use our weather pages